Total_Precipitation_Accumulation
0.05 0.12 0.33 0.55 0.97 1.74 1.63 1.03 0.52 0.31 0.30 0.37 0.43 0.46 0.52 0.54 0.70 1.14 0.84 0.63 0.41 0.48 0.54 0.61 0.62 0.53 0.50 0.58 0.63 0.66 0.70 0.69 0.67 0.67 0.69 0.72 0.70 0.66 0.67 0.67 0.64 0.64 0.65 0.57 0.52 0.49 0.44 0.45 0.45
0.08 0.19 0.42 0.62 1.32 1.83 1.35 1.16 0.46 0.27 0.23 0.32 0.39 0.43 0.48 0.47 0.31 0.44 0.67 0.62 0.45 0.47 0.42 0.38 0.46 0.48 0.49 0.59 0.66 0.81 0.80 0.75 0.69 0.70 0.67 0.62 0.61 0.60 0.58 0.58 0.58 0.61 0.56 0.50 0.44 0.41 0.37 0.37 0.37
0.11 0.22 0.42 0.62 0.99 1.10 0.75 0.59 0.28 0.24 0.26 0.30 0.37 0.39 0.42 0.52 0.36 0.45 0.55 0.46 0.42 0.40 0.39 0.43 0.47 0.46 0.54 0.62 0.69 0.76 0.68 0.62 0.62 0.66 0.64 0.62 0.60 0.59 0.58 0.56 0.54 0.54 0.49 0.43 0.37 0.37 0.36 0.35 0.39
0.11 0.21 0.32 0.47 0.50 0.54 0.46 0.32 0.21 0.18 0.22 0.29 0.33 0.35 0.46 0.44 0.32 0.45 0.51 0.52 0.38 0.33 0.37 0.42 0.45 0.49 0.53 0.54 0.58 0.64 0.63 0.57 0.58 0.59 0.61 0.62 0.60 0.61 0.56 0.49 0.47 0.45 0.45 0.41 0.39 0.37 0.37 0.38 0.44
0.11 0.25 0.36 0.37 0.31 0.40 0.39 0.29 0.23 0.16 0.15 0.28 0.39 0.52 0.62 0.49 0.35 0.50 0.54 0.58 0.45 0.36 0.41 0.42 0.51 0.54 0.53 0.49 0.53 0.54 0.55 0.56 0.59 0.57 0.55 0.55 0.53 0.55 0.51 0.44 0.40 0.41 0.40 0.37 0.38 0.38 0.42 0.46 0.51
0.13 0.25 0.27 0.24 0.24 0.31 0.29 0.21 0.19 0.18 0.22 0.27 0.40 0.65 0.78 0.66 0.45 0.48 0.60 0.54 0.54 0.55 0.56 0.54 0.61 0.59 0.58 0.55 0.55 0.51 0.50 0.51 0.47 0.46 0.48 0.46 0.43 0.47 0.51 0.48 0.40 0.38 0.39 0.36 0.35 0.37 0.45 0.53 0.58
0.12 0.18 0.16 0.14 0.18 0.25 0.24 0.18 0.17 0.15 0.18 0.29 0.37 0.70 0.93 1.02 0.74 0.60 0.71 0.79 0.88 0.81 0.68 0.65 0.72 0.71 0.67 0.74 0.66 0.58 0.52 0.50 0.49 0.47 0.48 0.47 0.43 0.42 0.44 0.52 0.48 0.41 0.45 0.43 0.42 0.41 0.48 0.54 0.61
0.05 0.08 0.12 0.12 0.10 0.19 0.20 0.18 0.16 0.16 0.18 0.27 0.36 0.57 0.92 0.88 0.65 0.69 1.03 1.17 1.38 1.27 1.04 0.90 0.83 0.74 0.70 0.71 0.71 0.66 0.59 0.53 0.53 0.52 0.47 0.50 0.49 0.46 0.50 0.48 0.52 0.51 0.55 0.60 0.56 0.53 0.55 0.57 0.59
0.04 0.05 0.09 0.09 0.07 0.10 0.12 0.14 0.14 0.13 0.17 0.34 0.47 0.59 0.76 0.67 0.62 0.74 1.35 1.55 1.65 1.56 1.38 1.13 0.93 0.86 0.85 0.73 0.68 0.76 0.73 0.67 0.67 0.67 0.63 0.75 0.88 0.76 0.80 0.69 0.77 0.76 0.78 0.81 0.81 0.83 0.84 0.81 0.72
0.03 0.03 0.04 0.04 0.04 0.05 0.09 0.14 0.13 0.15 0.30 0.66 0.89 0.88 0.84 0.76 0.87 1.10 1.50 1.55 1.74 1.81 1.53 1.33 1.13 0.96 0.86 0.75 0.85 1.08 0.91 0.90 0.99 1.06 1.06 1.28 1.47 1.44 0.95 0.96 1.22 1.28 1.34 1.32 1.33 1.34 1.17 1.03 0.99
0.02 0.03 0.02 0.02 0.02 0.03 0.06 0.12 0.14 0.18 0.53 0.97 1.27 1.09 0.96 1.04 1.12 1.39 1.79 2.02 2.01 2.11 1.84 1.59 1.34 1.10 0.99 1.06 0.95 1.09 1.25 1.33 1.35 1.35 1.35 1.52 1.43 1.23 1.07 1.18 1.45 1.68 1.74 1.63 1.80 1.87 1.55 1.61 1.88
0.02 0.02 0.01 0.01 0.02 0.03 0.06 0.09 0.14 0.24 0.49 0.69 0.86 1.02 1.12 1.27 1.52 1.76 1.88 2.15 2.19 2.23 2.08 2.02 1.65 1.45 1.54 1.40 1.12 1.04 1.08 1.20 1.38 1.61 1.57 1.63 1.82 1.73 1.66 1.73 1.78 1.89 2.07 2.32 2.24 2.41 2.27 2.22 2.11
0.01 0.02 0.01 0.01 0.02 0.03 0.05 0.08 0.18 0.32 0.43 0.53 0.85 1.19 1.44 1.47 1.76 2.03 2.13 2.41 2.28 2.22 2.22 2.22 2.05 1.86 1.92 1.73 1.53 1.31 1.42 1.44 1.49 1.62 1.77 1.71 1.93 2.10 2.09 2.06 2.03 1.91 1.98 2.14 2.33 2.37 2.71 2.83 2.47
0.00 0.01 0.01 0.01 0.02 0.04 0.08 0.13 0.23 0.37 0.53 0.72 0.94 1.21 1.51 1.77 1.98 2.07 2.42 2.63 2.61 2.48 2.51 2.34 2.27 2.26 2.25 2.16 2.12 2.02 1.78 1.84 1.76 1.71 1.71 1.76 1.98 2.23 2.35 2.22 2.18 2.04 2.01 2.15 2.31 2.47 2.95 2.97 2.79
0.00 0.02 0.03 0.04 0.05 0.07 0.11 0.27 0.43 0.55 0.63 0.78 0.99 1.12 1.45 1.96 2.23 2.24 2.47 2.63 2.58 2.87 2.88 2.88 2.85 2.98 2.90 2.74 2.61 2.40 2.23 2.09 2.05 2.09 2.10 1.99 2.02 2.22 2.25 2.08 1.98 2.04 2.19 2.36 2.37 2.48 2.77 2.55 2.55
0.02 0.08 0.11 0.12 0.10 0.10 0.17 0.47 0.59 0.67 0.67 0.86 1.06 1.23 1.52 1.81 2.16 2.30 2.52 2.72 2.80 3.12 3.24 3.41 3.43 3.42 3.27 3.25 3.18 2.92 2.69 2.53 2.37 2.32 2.34 2.17 2.09 2.11 2.28 2.10 1.95 2.26 2.31 2.40 2.63 2.75 2.76 2.71 2.72
0.05 0.07 0.09 0.12 0.10 0.09 0.16 0.41 0.52 0.69 0.91 1.08 1.26 1.41 1.45 1.72 2.04 2.39 2.67 3.01 3.29 3.59 3.82 3.97 3.98 3.84 3.59 3.61 3.58 3.42 3.24 2.91 2.56 2.41 2.33 2.17 2.11 2.19 2.44 2.42 2.51 2.56 2.60 2.63 2.50 2.81 2.85 2.73 2.74
0.04 0.06 0.08 0.12 0.11 0.10 0.21 0.46 0.58 0.75 0.99 1.04 1.30 1.47 1.55 1.65 2.09 2.54 2.75 3.15 3.64 4.12 4.50 4.32 4.20 4.37 4.24 4.07 3.90 3.61 3.16 2.76 2.62 2.56 2.38 2.23 2.23 2.31 2.66 2.52 2.52 2.58 2.72 2.76 2.71 2.76 2.76 2.50 2.48
0.04 0.06 0.10 0.13 0.11 0.14 0.27 0.53 0.79 0.89 1.16 1.13 1.15 1.30 1.46 1.60 1.90 2.33 2.63 3.19 3.80 4.17 4.56 4.70 4.69 4.56 4.34 3.92 3.57 3.31 3.09 2.93 2.69 2.51 2.43 2.29 2.18 2.29 2.64 2.55 2.72 2.66 2.65 2.64 2.68 2.73 2.59 2.22 2.42
0.05 0.07 0.10 0.15 0.15 0.20 0.37 0.59 0.89 0.90 0.98 1.04 0.96 0.99 1.18 1.55 1.81 2.33 2.63 2.84 3.32 3.83 4.28 4.57 4.71 4.59 4.19 3.76 3.52 3.37 3.31 2.94 2.64 2.61 2.64 2.46 2.47 2.49 2.50 2.63 2.61 2.64 2.73 2.64 2.59 2.65 2.48 2.10 2.25
0.06 0.07 0.10 0.10 0.14 0.27 0.40 0.79 1.07 0.96 0.92 0.94 0.93 0.99 1.17 1.63 2.07 2.33 2.53 2.69 2.97 3.36 3.67 3.79 3.94 3.90 3.73 3.73 3.71 3.62 3.56 3.10 2.96 2.94 2.91 2.74 2.72 2.70 2.68 2.65 2.54 2.49 2.34 2.36 2.41 2.41 2.41 2.26 2.16
0.08 0.07 0.06 0.07 0.14 0.34 0.40 0.86 1.31 1.15 1.01 1.06 1.12 1.07 1.35 1.68 1.71 1.87 2.18 2.50 2.67 2.91 3.25 3.48 3.54 3.49 3.39 3.47 3.48 3.34 3.12 2.94 3.04 3.30 3.26 2.99 2.75 2.56 2.36 2.25 2.30 2.27 2.13 2.12 1.90 1.99 2.11 2.08 1.92
0.07 0.06 0.06 0.09 0.16 0.33 0.42 0.65 1.19 1.25 1.25 1.14 1.16 1.28 1.49 1.52 1.46 1.57 1.77 2.09 2.20 2.51 2.80 3.05 3.31 3.40 3.33 3.36 3.28 3.27 3.14 3.13 3.17 3.12 3.07 2.82 2.58 2.26 1.96 1.90 1.97 1.96 1.87 1.80 1.74 1.86 1.77 1.70 1.68
0.05 0.07 0.12 0.19 0.31 0.66 0.52 0.54 1.00 1.18 1.03 0.97 1.08 1.11 1.30 1.30 1.31 1.49 1.65 1.88 2.00 2.15 2.27 2.41 2.63 2.90 3.05 3.09 3.05 3.07 3.00 2.99 2.91 2.79 2.62 2.39 2.20 1.93 1.68 1.55 1.66 1.76 1.78 1.75 1.73 1.80 1.70 1.67 1.79
0.06 0.10 0.39 0.74 0.98 1.03 0.56 0.60 1.06 0.93 0.74 0.76 0.95 1.00 1.06 1.03 1.01 1.23 1.37 1.47 1.62 1.75 1.84 1.96 2.16 2.49 2.63 2.62 2.59 2.71 2.76 2.78 2.68 2.62 2.43 2.20 1.93 1.64 1.59 1.58 1.63 1.68 1.76 1.66 1.69 1.74 1.78 1.89 1.92
0.08 0.10 0.34 0.62 0.75 0.82 0.67 1.02 1.46 0.98 0.76 0.81 0.85 0.85 0.83 0.80 0.77 0.93 1.14 1.35 1.42 1.46 1.58 1.72 1.94 2.17 2.26 2.21 2.32 2.52 2.59 2.67 2.55 2.56 2.31 2.05 1.84 1.74 1.77 1.74 1.61 1.57 1.66 1.58 1.78 1.70 1.72 1.89 1.90
0.09 0.08 0.15 0.28 0.37 0.60 0.84 1.14 1.19 0.74 0.65 0.74 0.77 0.77 0.84 0.81 0.75 0.82 0.90 1.07 1.13 1.19 1.31 1.46 1.81 2.08 2.17 2.20 2.33 2.41 2.48 2.46 2.36 2.27 2.10 1.90 1.91 1.86 1.96 1.90 1.76 1.66 1.72 1.84 2.06 1.98 1.96 2.13 2.07
0.10 0.11 0.16 0.23 0.37 0.60 0.81 1.11 1.26 0.89 0.72 0.53 0.49 0.53 0.51 0.53 0.54 0.61 0.66 0.76 0.89 1.10 1.36 1.52 1.65 1.94 2.06 2.06 2.13 2.14 2.29 2.24 2.13 2.07 1.91 1.77 1.68 1.73 1.88 1.99 1.92 1.84 1.86 2.00 2.14 2.13 2.27 2.39 2.33
0.13 0.12 0.14 0.17 0.22 0.41 0.81 1.04 0.84 0.70 0.59 0.54 0.50 0.54 0.47 0.40 0.42 0.49 0.62 0.76 0.93 1.08 1.24 1.34 1.40 1.55 1.69 1.79 1.96 1.93 1.91 1.99 2.03 1.90 1.73 1.67 1.64 1.68 1.75 1.92 1.98 1.92 1.93 2.04 2.09 2.05 2.29 2.39 2.36
0.14 0.12 0.13 0.18 0.18 0.26 0.47 0.68 0.55 0.61 0.60 0.52 0.54 0.60 0.60 0.56 0.50 0.55 0.72 0.89 1.01 1.14 1.15 1.17 1.23 1.36 1.50 1.66 1.86 1.95 1.96 2.00 1.97 1.79 1.65 1.63 1.64 1.70 1.77 1.89 1.91 1.82 1.82 1.97 2.00 2.05 2.25 2.34 2.23